| time (UTC) | temp F | wind direction | speed knots | gust knots | rain 1hr in | rain 24hr in | rain mn in | humidity % | barometer mb |
| 20260510140034 | 55 | 24 | 3.5 | 13.0 | 0.00 | 0.00 | 0.00 | 69 | 1017.8 |
| 20260510135025 | 55 | 22 | 5.2 | 13.0 | 0.00 | 0.00 | 0.00 | 68 | 1017.8 |
| 20260510134026 | 55 | 15 | 2.6 | 10.4 | 0.00 | 0.00 | 0.00 | 68 | 1017.7 |
| 20260510133036 | 55 | 57 | 1.7 | 10.4 | 0.00 | 0.00 | 0.00 | 69 | 1017.9 |
| 20260510132032 | 55 | 34 | 1.7 | 6.1 | 0.00 | 0.00 | 0.00 | 69 | 1017.9 |
| 20260510131027 | 55 | 30 | 1.7 | 8.7 | 0.00 | 0.00 | 0.00 | 69 | 1017.9 |
| 20260510130025 | 56 | 16 | 2.6 | 13.0 | 0.00 | 0.00 | 0.00 | 68 | 1017.9 |
| 20260510125036 | 56 | 26 | 2.6 | 10.4 | 0.00 | 0.00 | 0.00 | 68 | 1018.2 |
| 20260510124112 | 56 | 26 | 2.6 | 8.7 | 0.00 | 0.00 | 0.00 | 68 | 1018.3 |
| 20260510123024 | 56 | 31 | 1.7 | 8.7 | 0.00 | 0.00 | 0.00 | 67 | 1018.3 |
| 20260510122036 | 55 | 28 | 3.5 | 10.4 | 0.00 | 0.00 | 0.00 | 67 | 1018.2 |
| 20260510121032 | 55 | 42 | 1.7 | 10.4 | 0.00 | 0.00 | 0.00 | 68 | 1018.4 |
| 20260510120025 | 56 | 25 | 4.3 | 10.4 | 0.00 | 0.00 | 0.00 | 68 | 1018.4 |
| 20260510115057 | 56 | 29 | 2.6 | 10.4 | 0.00 | 0.00 | 0.00 | 68 | 1018.5 |
| 20260510114031 | 57 | 24 | 7.0 | 17.4 | 0.00 | 0.00 | 0.00 | 67 | 1018.5 |
| 20260510113024 | 57 | 22 | 3.5 | 14.8 | 0.00 | 0.00 | 0.00 | 65 | 1018.7 |
| 20260510112056 | 57 | 49 | 4.3 | 17.4 | 0.00 | 0.00 | 0.00 | 66 | 1018.8 |
| 20260510111031 | 57 | 28 | 5.2 | 17.4 | 0.00 | 0.00 | 0.00 | 66 | 1018.8 |
| 20260510110031 | 58 | 41 | 4.3 | 14.8 | 0.00 | 0.00 | 0.00 | 65 | 1019.0 |
| 20260510105024 | 58 | 29 | 3.5 | 10.4 | 0.00 | 0.00 | 0.00 | 64 | 1018.9 |
| 20260510104056 | 57 | 38 | 2.6 | 14.8 | 0.00 | 0.00 | 0.00 | 65 | 1019.0 |
| 20260510103031 | 56 | 26 | 2.6 | 10.4 | 0.00 | 0.00 | 0.00 | 65 | 1018.9 |
| 20260510102023 | 55 | 39 | 2.6 | 10.4 | 0.00 | 0.00 | 0.00 | 67 | 1019.0 |
| 20260510101056 | 55 | 35 | 3.5 | 14.8 | 0.00 | 0.00 | 0.00 | 69 | 1019.0 |
| 20260510100031 | 54 | 39 | 2.6 | 8.7 | 0.00 | 0.00 | 0.00 | 70 | 1019.0 |
| 20260510095025 | 54 | 27 | 3.5 | 8.7 | 0.00 | 0.00 | 0.00 | 71 | 1019.1 |
| 20260510094036 | 54 | 21 | 2.6 | 10.4 | 0.00 | 0.00 | 0.00 | 72 | 1019.2 |
| 20260510093051 | 54 | 30 | 3.5 | 14.8 | 0.00 | 0.00 | 0.00 | 72 | 1019.2 |
| 20260510092023 | 54 | 17 | 5.2 | 19.1 | 0.00 | 0.00 | 0.00 | 72 | 1019.3 |
| 20260510091037 | 53 | 22 | 2.6 | 10.4 | 0.00 | 0.00 | 0.00 | 72 | 1019.3 |
| 20260510090031 | 53 | 39 | 1.7 | 6.1 | 0.00 | 0.00 | 0.00 | 73 | 1019.5 |
| 20260510085025 | 53 | 31 | 3.5 | 13.0 | 0.00 | 0.00 | 0.00 | 74 | 1019.5 |
| 20260510084036 | 53 | 26 | 1.7 | 8.7 | 0.00 | 0.00 | 0.00 | 75 | 1019.7 |
| 20260510083031 | 53 | 25 | 3.5 | 14.8 | 0.00 | 0.00 | 0.00 | 75 | 1019.6 |
| 20260510082024 | 52 | 26 | 2.6 | 8.7 | 0.00 | 0.00 | 0.00 | 75 | 1019.7 |
| 20260510081036 | 52 | 29 | 1.7 | 13.0 | 0.00 | 0.00 | 0.00 | 76 | 1019.6 |
| 20260510080050 | 52 | 27 | 4.3 | 17.4 | 0.00 | 0.00 | 0.00 | 77 | 1019.6 |
| 20260510075023 | 52 | 25 | 3.5 | 10.4 | 0.00 | 0.00 | 0.00 | 77 | 1019.7 |
| 20260510074024 | 52 | 48 | 1.7 | 6.1 | 0.00 | 0.00 | 0.00 | 78 | 1019.7 |
| 20260510073035 | 51 | 23 | 4.3 | 13.0 | 0.00 | 0.00 | 0.00 | 78 | 1019.7 |
| 20260510072031 | 51 | 33 | 1.7 | 8.7 | 0.00 | 0.00 | 0.00 | 79 | 1019.6 |
| 20260510071023 | 51 | 47 | 0.9 | 8.7 | 0.00 | 0.00 | 0.00 | 79 | 1019.6 |
| 20260510070036 | 51 | 60 | 1.7 | 8.7 | 0.00 | 0.00 | 0.00 | 80 | 1019.5 |
| 20260510065031 | 50 | 23 | 1.7 | 10.4 | 0.00 | 0.00 | 0.00 | 80 | 1019.6 |
| 20260510064025 | 50 | 27 | 1.7 | 8.7 | 0.00 | 0.00 | 0.00 | 82 | 1019.6 |
| 20260510063035 | 50 | 44 | 2.6 | 8.7 | 0.00 | 0.00 | 0.00 | 82 | 1019.5 |
| 20260510062035 | 50 | 32 | 1.7 | 10.4 | 0.00 | 0.00 | 0.00 | 83 | 1019.4 |
| 20260510061032 | 50 | 28 | 3.5 | 8.7 | 0.00 | 0.00 | 0.00 | 83 | 1019.4 |
| 20260510060023 | 50 | 27 | 4.3 | 13.0 | 0.00 | 0.00 | 0.00 | 83 | 1019.3 |
| 20260510055035 | 50 | 31 | 2.6 | 8.7 | 0.00 | 0.00 | 0.00 | 84 | 1019.2 |
| 20260510054031 | 50 | 23 | 3.5 | 13.0 | 0.00 | 0.00 | 0.00 | 84 | 1019.3 |
| 20260510053032 | 50 | 29 | 2.6 | 8.7 | 0.00 | 0.00 | 0.00 | 84 | 1019.4 |
| 20260510052027 | 49 | 21 | 4.3 | 10.4 | 0.00 | 0.00 | 0.00 | 84 | 1019.3 |
| 20260510051023 | 49 | 16 | 2.6 | 10.4 | 0.00 | 0.00 | 0.00 | 84 | 1019.2 |
| 20260510050023 | 49 | 25 | 1.7 | 10.4 | 0.00 | 0.00 | 0.00 | 84 | 1019.3 |
| 20260510045035 | 49 | 30 | 1.7 | 10.4 | 0.00 | 0.00 | 0.00 | 85 | 1019.2 |
| 20260510044031 | 49 | 29 | 1.7 | 6.1 | 0.00 | 0.00 | 0.00 | 85 | 1019.3 |
| 20260510043034 | 49 | 29 | 0.9 | 4.3 | 0.00 | 0.00 | 0.00 | 86 | 1019.3 |
| 20260510042031 | 49 | 24 | 2.6 | 8.7 | 0.00 | 0.00 | 0.00 | 86 | 1019.4 |
| 20260510041024 | 49 | 31 | 3.5 | 10.4 | 0.00 | 0.00 | 0.00 | 86 | 1019.3 |
| 20260510040043 | 49 | 24 | 3.5 | 10.4 | 0.00 | 0.00 | 0.00 | 86 | 1019.5 |
| 20260510035035 | 49 | 27 | 1.7 | 8.7 | 0.00 | 0.00 | 0.00 | 86 | 1019.5 |
| 20260510034035 | 49 | 16 | 1.7 | 8.7 | 0.00 | 0.00 | 0.00 | 86 | 1019.5 |
| 20260510033051 | 49 | 26 | 0.9 | 6.1 | 0.00 | 0.00 | 0.00 | 86 | 1019.7 |
| 20260510032024 | 49 | 24 | 3.5 | 10.4 | 0.00 | 0.00 | 0.00 | 86 | 1019.8 |
| 20260510031035 | 49 | 23 | 3.5 | 13.0 | 0.00 | 0.00 | 0.00 | 86 | 1019.8 |
| 20260510030050 | 49 | 25 | 1.7 | 6.1 | 0.00 | 0.00 | 0.00 | 86 | 1019.6 |
| 20260510025045 | 50 | 11 | 2.6 | 8.7 | 0.00 | 0.00 | 0.00 | 86 | 1019.6 |
| 20260510024036 | 50 | 23 | 1.7 | 8.7 | 0.00 | 0.00 | 0.00 | 86 | 1019.7 |
| 20260510023051 | 50 | 27 | 3.5 | 8.7 | 0.00 | 0.00 | 0.00 | 85 | 1019.8 |
| 20260510022027 | 50 | 18 | 3.5 | 10.4 | 0.00 | 0.00 | 0.00 | 85 | 1019.7 |
| 20260510021023 | 50 | 29 | 4.3 | 10.4 | 0.00 | 0.00 | 0.00 | 85 | 1019.7 |
| 20260510020051 | 51 | 20 | 4.3 | 13.0 | 0.00 | 0.00 | 0.00 | 84 | 1019.5 |
| 20260510015031 | 51 | 18 | 3.5 | 10.4 | 0.00 | 0.00 | 0.00 | 83 | 1019.6 |
| 20260510014043 | 51 | 31 | 2.6 | 8.7 | 0.00 | 0.00 | 0.00 | 81 | 1019.7 |
| 20260510013035 | 51 | 26 | 3.5 | 10.4 | 0.00 | 0.00 | 0.00 | 79 | 1019.7 |
| 20260510012035 | 52 | 4 | 1.7 | 6.1 | 0.00 | 0.00 | 0.00 | 77 | 1019.7 |
| 20260510011030 | 52 | 24 | 2.6 | 13.0 | 0.00 | 0.00 | 0.00 | 74 | 1019.6 |
| 20260510010026 | 53 | 25 | 2.6 | 8.7 | 0.00 | 0.00 | 0.00 | 71 | 1019.6 |
| 20260510005035 | 53 | 17 | 1.7 | 10.4 | 0.00 | 0.00 | 0.00 | 69 | 1019.7 |
| 20260510004030 | 54 | 31 | 2.6 | 10.4 | 0.00 | 0.00 | 0.00 | 68 | 1019.5 |
| 20260510003104 | 54 | 36 | 2.6 | 8.7 | 0.00 | 0.00 | 0.00 | 68 | 1019.5 |
| 20260510002035 | 54 | 29 | 1.7 | 6.1 | 0.00 | 0.00 | 0.00 | 66 | 1019.6 |
| 20260510001031 | 55 | 26 | 1.7 | 10.4 | 0.00 | 0.00 | 0.00 | 64 | 1019.7 |
| 20260510000022 | 55 | 27 | 1.7 | 8.7 | 0.00 | 0.00 | 0.00 | 63 | 1019.6 |
| 20260509235055 | 55 | 34 | 1.7 | 6.1 | 0.00 | 0.00 | 0.00 | 63 | 1019.5 |
| 20260509234110 | 55 | 15 | 0.9 | 6.1 | 0.00 | 0.00 | 0.00 | 62 | 1019.5 |
| 20260509233045 | 55 | 16 | 1.7 | 6.1 | 0.00 | 0.00 | 0.00 | 61 | 1019.3 |
| 20260509232055 | 55 | 25 | 1.7 | 6.1 | 0.00 | 0.00 | 0.00 | 61 | 1019.5 |
| 20260509231031 | 55 | 25 | 1.7 | 6.1 | 0.00 | 0.00 | 0.00 | 61 | 1019.4 |
| 20260509230050 | 55 | 30 | 0.0 | 4.3 | 0.00 | 0.00 | 0.00 | 61 | 1019.5 |
| 20260509225024 | 55 | 22 | 0.9 | 4.3 | 0.00 | 0.00 | 0.00 | 61 | 1019.4 |
| 20260509224035 | 55 | 6 | 0.9 | 4.3 | 0.00 | 0.00 | 0.00 | 61 | 1019.5 |
| 20260509223032 | 55 | 22 | 0.0 | 1.7 | 0.00 | 0.00 | 0.00 | 60 | 1019.4 |
| 20260509222035 | 55 | 15 | 0.0 | 1.7 | 0.00 | 0.00 | 0.00 | 59 | 1019.3 |
| 20260509221023 | 55 | 20 | 0.0 | 6.1 | 0.00 | 0.00 | 0.00 | 58 | 1019.4 |
| 20260509220035 | 55 | 26 | 0.0 | 1.7 | 0.00 | 0.00 | 0.00 | 57 | 1019.3 |
| 20260509215030 | 56 | 18 | 0.0 | 1.7 | 0.00 | 0.00 | 0.00 | 55 | 1019.4 |
| 20260509214023 | 57 | 6 | 0.0 | 1.7 | 0.00 | 0.00 | 0.00 | 55 | 1019.6 |
| 20260509213034 | 57 | 17 | 0.0 | 1.7 | 0.00 | 0.00 | 0.00 | 53 | 1019.6 |
| 20260509212030 | 58 | 13 | 0.0 | 1.7 | 0.00 | 0.00 | 0.00 | 52 | 1019.2 |
| 20260509211035 | 58 | 32 | 0.9 | 6.1 | 0.00 | 0.00 | 0.00 | 51 | 1019.1 |
| 20260509210035 | 58 | 59 | 0.9 | 4.3 | 0.00 | 0.00 | 0.00 | 50 | 1019.0 |
| 20260509205030 | 59 | 54 | 0.9 | 6.1 | 0.00 | 0.00 | 0.00 | 49 | 1019.0 |
| 20260509204023 | 59 | 49 | 0.9 | 4.3 | 0.00 | 0.00 | 0.00 | 49 | 1019.0 |
| 20260509203034 | 59 | 37 | 0.9 | 4.3 | 0.00 | 0.00 | 0.00 | 49 | 1019.0 |
| 20260509202031 | 59 | 66 | 0.0 | 4.3 | 0.00 | 0.00 | 0.00 | 49 | 1018.9 |
| 20260509201022 | 60 | 64 | 0.0 | 4.3 | 0.00 | 0.00 | 0.00 | 48 | 1018.7 |
| 20260509200023 | 60 | 107 | 0.9 | 4.3 | 0.00 | 0.00 | 0.00 | 48 | 1018.6 |
| 20260509195034 | 61 | 83 | 0.0 | 1.7 | 0.00 | 0.00 | 0.00 | 48 | 1018.7 |
| 20260509194029 | 61 | 83 | 0.9 | 4.3 | 0.00 | 0.00 | 0.00 | 48 | 1018.6 |
| 20260509193022 | 61 | 75 | 0.9 | 4.3 | 0.00 | 0.00 | 0.00 | 48 | 1018.5 |
| 20260509192023 | 62 | 71 | 1.7 | 6.1 | 0.00 | 0.00 | 0.00 | 47 | 1018.3 |
| 20260509191034 | 63 | 103 | 0.9 | 4.3 | 0.00 | 0.00 | 0.00 | 47 | 1018.3 |
| 20260509190031 | 64 | 83 | 1.7 | 8.7 | 0.00 | 0.00 | 0.00 | 46 | 1018.3 |
| 20260509185023 | 64 | 93 | 0.9 | 4.3 | 0.00 | 0.00 | 0.00 | 45 | 1018.3 |
| 20260509184022 | 65 | 94 | 0.9 | 4.3 | 0.00 | 0.00 | 0.00 | 44 | 1018.0 |
| 20260509183034 | 65 | 100 | 0.9 | 4.3 | 0.00 | 0.00 | 0.00 | 43 | 1018.1 |
| 20260509182050 | 65 | 76 | 1.7 | 10.4 | 0.00 | 0.00 | 0.00 | 42 | 1018.1 |
| 20260509181023 | 66 | 88 | 1.7 | 6.1 | 0.00 | 0.00 | 0.00 | 43 | 1018.0 |
| 20260509180023 | 67 | 72 | 1.7 | 6.1 | 0.00 | 0.00 | 0.00 | 43 | 1018.0 |
| 20260509175054 | 68 | 72 | 1.7 | 8.7 | 0.00 | 0.00 | 0.00 | 42 | 1017.8 |
| 20260509174029 | 68 | 51 | 0.0 | 4.3 | 0.00 | 0.00 | 0.00 | 40 | 1017.7 |
| 20260509173022 | 69 | 97 | 1.7 | 4.3 | 0.00 | 0.00 | 0.00 | 39 | 1017.6 |
| 20260509172035 | 69 | 68 | 0.0 | 4.3 | 0.00 | 0.00 | 0.00 | 40 | 1017.6 |
| 20260509171030 | 70 | 61 | 0.9 | 13.0 | 0.00 | 0.00 | 0.00 | 40 | 1017.7 |
| 20260509170022 | 71 | 73 | 1.7 | 10.4 | 0.00 | 0.00 | 0.00 | 39 | 1017.8 |
| 20260509165034 | 71 | 96 | 0.9 | 6.1 | 0.00 | 0.00 | 0.00 | 38 | 1017.8 |
| 20260509164030 | 72 | 105 | 0.9 | 6.1 | 0.00 | 0.00 | 0.00 | 37 | 1017.8 |
| 20260509163022 | 72 | 93 | 1.7 | 8.7 | 0.00 | 0.00 | 0.00 | 37 | 1017.7 |
| 20260509162035 | 73 | 103 | 1.7 | 6.1 | 0.00 | 0.00 | 0.00 | 35 | 1017.6 |
| 20260509161030 | 73 | 74 | 1.7 | 10.4 | 0.00 | 0.00 | 0.00 | 35 | 1017.9 |
| 20260509160022 | 73 | 66 | 1.7 | 6.1 | 0.00 | 0.00 | 0.00 | 36 | 1017.8 |
| 20260509155034 | 73 | 80 | 1.7 | 8.7 | 0.00 | 0.00 | 0.00 | 35 | 1017.9 |
| 20260509154035 | 73 | 93 | 1.7 | 6.1 | 0.00 | 0.00 | 0.00 | 36 | 1018.0 |
| 20260509153030 | 73 | 96 | 0.9 | 6.1 | 0.00 | 0.00 | 0.00 | 35 | 1018.1 |
| 20260509152026 | 73 | 107 | 1.7 | 6.1 | 0.00 | 0.00 | 0.00 | 36 | 1018.1 |
| 20260509151023 | 74 | 45 | 1.7 | 6.1 | 0.00 | 0.00 | 0.00 | 36 | 1018.1 |
| 20260509150035 | 74 | 87 | 0.9 | 6.1 | 0.00 | 0.00 | 0.00 | 36 | 1018.0 |
| 20260509145050 | 74 | 77 | 1.7 | 8.7 | 0.00 | 0.00 | 0.00 | 36 | 1018.0 |
| 20260509144022 | 74 | 106 | 1.7 | 8.7 | 0.00 | 0.00 | 0.00 | 36 | 1018.0 |
| 20260509143034 | 74 | 57 | 1.7 | 10.4 | 0.00 | 0.00 | 0.00 | 37 | 1017.7 |
| 20260509142030 | 74 | 83 | 1.7 | 4.3 | 0.00 | 0.00 | 0.00 | 36 | 1017.8 |
| 20260509141022 | 73 | 100 | 1.7 | 6.1 | 0.00 | 0.00 | 0.00 | 35 | 1017.8 |